Lid_Strength_Index
13 16 17 15 16 15 17 18 18 16 15 16 17 16 14 14 15 15 15 15 15 14 13 13 13 12 11 11 10 10 10 11 11 12 13 13 13 13 13 12 11 11 11 11
15 17 14 13 14 15 15 18 17 15 14 16 16 17 15 15 14 13 13 15 14 15 14 13 12 12 10 10 11 11 11 11 12 12 13 13 14 14 13 12 12 12 11 11
17 15 12 14 15 16 16 16 16 16 16 16 17 18 17 15 14 15 14 13 13 13 13 13 12 12 12 11 11 11 11 12 12 12 13 13 14 14 13 13 13 12 12 12
15 13 14 15 16 15 18 14 13 15 17 21 17 23 17 16 15 15 14 15 14 13 13 12 12 12 11 11 12 12 12 12 12 13 13 14 15 15 14 14 13 13 12 12
16 15 16 15 15 14 17 15 14 16 18 19 19 21 18 17 16 14 14 15 14 13 12 12 11 11 11 12 12 13 13 13 13 13 14 14 15 14 14 14 14 14 13 13
15 14 14 15 14 14 14 15 15 16 18 26 19 20 19 18 15 14 14 14 15 15 12 11 11 11 13 13 13 13 13 14 13 14 14 14 15 15 15 15 15 15 15 14
16 16 14 13 16 14 14 17 21 25 27 26 19 20 18 15 14 13 14 14 15 15 12 12 13 12 13 13 13 13 13 14 14 14 14 15 15 15 15 15 15 16 16 15
19 19 15 14 14 16 16 16 21 27 27 23 19 22 18 14 13 13 13 14 14 14 12 12 12 12 12 13 13 13 14 14 14 14 15 14 14 15 15 15 16 16 16 16
18 17 15 14 13 13 16 18 15 21 27 26 20 19 16 14 14 14 14 15 15 14 13 12 12 12 13 13 13 13 14 14 14 14 15 15 15 15 16 16 15 16 16 14
14 18 14 14 13 14 16 14 18 19 26 29 23 21 19 16 14 14 14 14 15 14 13 13 13 13 13 13 13 14 14 14 15 15 15 15 15 15 15 15 15 16 16 15
13 14 16 14 16 17 17 20 18 16 19 26 28 21 16 15 14 14 14 14 15 14 14 13 13 13 13 14 14 14 15 15 15 15 15 16 15 15 15 15 16 16 15 15
12 13 18 17 13 13 14 16 17 19 22 21 23 19 15 16 15 14 14 14 14 14 14 14 14 14 14 14 14 14 15 15 15 15 16 15 15 15 15 16 16 16 16 15
12 17 23 17 16 15 16 15 15 17 17 19 25 20 15 15 16 14 14 14 14 14 14 14 15 14 14 14 15 15 15 15 15 16 16 16 16 16 20 21 21 18 19 19
10 14 20 18 16 16 17 15 15 16 19 21 19 17 14 13 13 14 14 14 14 15 14 15 15 15 14 14 15 15 15 15 16 16 16 17 17 17 19 23 17 16 18 19
14 20 16 17 14 15 16 16 14 16 16 18 17 18 15 13 13 11 15 15 16 15 15 14 15 15 16 16 16 16 16 16 16 17 18 19 19 21 23 25 24 19 14 20
13 20 18 19 15 13 14 14 16 14 14 16 15 17 14 14 14 15 15 17 16 16 15 14 16 16 16 15 15 16 16 17 17 18 19 21 22 24 23 27 26 23 21 22
19 18 19 23 16 14 17 14 13 16 17 17 19 16 13 14 14 14 14 17 16 16 15 14 15 14 14 15 15 16 16 18 18 19 21 22 23 22 24 27 28 25 23 25
19 19 17 22 20 23 15 12 11 12 12 12 15 13 13 13 13 13 16 15 16 17 17 15 15 15 15 17 16 17 18 18 18 20 21 23 23 22 26 28 26 26 25 24
15 17 20 21 20 17 15 14 14 15 13 11 12 11 10 12 15 14 15 14 13 14 14 14 14 15 16 16 16 17 19 19 19 19 20 21 21 21 24 24 23 25 24 22
12 14 16 18 20 21 16 12 11 11 16 10 11 10 11 14 17 14 15 15 14 13 18 16 17 17 18 18 17 17 18 19 19 18 19 20 20 20 22 22 24 26 25 21
15 14 17 18 19 16 12 12 12 16 15 13 12 12 13 14 14 15 19 19 21 20 18 21 20 17 19 19 17 18 19 18 17 18 20 21 20 20 21 22 23 23 23 21
15 15 16 16 17 20 12 11 14 14 12 12 13 13 13 13 13 16 17 18 19 21 20 19 18 20 23 19 17 18 18 18 20 19 20 20 20 19 20 21 20 19 19 19
15 13 16 14 14 12 12 13 11 12 13 12 13 13 13 14 15 15 14 15 16 17 17 19 18 18 20 19 17 18 20 20 20 20 19 19 20 19 19 20 19 18 18 19
11 9 14 15 13 14 12 10 10 11 13 12 12 13 13 14 14 14 13 14 14 15 16 18 18 18 18 19 18 18 19 19 19 19 19 20 19 19 20 18 18 18 18 19
11 11 13 14 13 13 12 11 11 12 12 12 12 12 13 12 11 12 12 13 13 14 16 17 17 17 17 18 18 18 18 19 19 19 19 19 19 19 19 19 18 18 17 17
10 12 15 16 13 14 13 11 11 12 13 12 13 13 12 12 12 11 12 13 13 15 16 15 16 16 17 17 18 18 19 19 18 19 19 19 18 19 18 19 19 16 15 15